TimeEST,TemperatureF,Dew PointF,Humidity,Sea Level PressureIn,VisibilityMPH,Wind Direction,Wind SpeedMPH,Gust SpeedMPH,PrecipitationIn,Events,Conditions,WindDirDegrees,DateUTC
12:53 AM,18.0,10.0,71,29.90,10.0,SSW,13.8,-,0.00,,Overcast,200,2014-01-16 05:53:00
1:53 AM,17.1,10.0,74,29.89,10.0,SSW,16.1,23.0,N/A,,Overcast,200,2014-01-16 06:53:00
2:53 AM,18.0,10.0,71,29.85,10.0,South,16.1,-,N/A,,Overcast,190,2014-01-16 07:53:00
3:37 AM,17.6,10.4,73,29.78,10.0,South,16.1,-,N/A,,Overcast,180,2014-01-16 08:37:00
3:53 AM,18.0,10.9,74,29.81,10.0,South,12.7,-,N/A,,Overcast,180,2014-01-16 08:53:00
4:53 AM,19.9,12.0,71,29.77,10.0,South,15.0,-,N/A,,Overcast,180,2014-01-16 09:53:00
5:53 AM,19.9,12.9,74,29.74,3.0,South,16.1,-,0.00,Snow,Light Snow,180,2014-01-16 10:53:00
6:53 AM,19.9,14.0,78,29.70,9.0,South,16.1,-,0.00,Snow,Light Snow,180,2014-01-16 11:53:00
7:29 AM,21.2,15.8,80,29.65,2.0,South,18.4,25.3,0.00,Snow,Light Snow,180,2014-01-16 12:29:00
7:43 AM,21.2,15.8,80,29.65,1.5,South,19.6,25.3,0.00,Snow,Light Snow,180,2014-01-16 12:43:00
7:53 AM,21.0,15.1,78,29.69,1.5,South,17.3,25.3,0.00,Snow,Light Snow,180,2014-01-16 12:53:00
8:19 AM,21.2,15.8,80,29.64,3.0,South,15.0,-,0.00,Snow,Light Snow,180,2014-01-16 13:19:00
8:53 AM,21.0,15.1,78,29.68,6.0,South,17.3,-,0.00,Snow,Light Snow,180,2014-01-16 13:53:00
9:53 AM,21.9,16.0,78,29.68,7.0,South,16.1,23.0,0.00,Snow,Light Snow,180,2014-01-16 14:53:00
10:53 AM,23.0,17.1,78,29.67,8.0,South,18.4,25.3,0.00,,Overcast,180,2014-01-16 15:53:00
11:48 AM,24.8,17.6,74,29.61,8.0,South,17.3,24.2,N/A,,Overcast,180,2014-01-16 16:48:00
11:53 AM,24.1,18.0,77,29.65,9.0,South,16.1,-,N/A,,Overcast,180,2014-01-16 16:53:00
12:53 PM,26.1,19.0,75,29.61,10.0,South,16.1,23.0,N/A,,Overcast,180,2014-01-16 17:53:00
1:26 PM,26.6,19.4,74,29.56,10.0,South,12.7,-,N/A,,Overcast,180,2014-01-16 18:26:00
1:53 PM,27.0,19.0,72,29.59,10.0,South,13.8,23.0,N/A,,Overcast,190,2014-01-16 18:53:00
2:53 PM,28.0,21.0,75,29.57,10.0,South,10.4,-,N/A,,Overcast,180,2014-01-16 19:53:00
3:09 PM,28.4,21.2,74,29.54,10.0,South,12.7,-,0.00,Snow,Light Snow,190,2014-01-16 20:09:00
3:53 PM,28.0,21.0,75,29.57,7.0,South,12.7,-,0.00,Snow,Light Snow,170,2014-01-16 20:53:00
4:01 PM,28.4,21.2,74,29.54,1.0,South,12.7,-,0.00,Snow,Light Snow,170,2014-01-16 21:01:00
4:23 PM,26.6,23.0,86,29.54,0.5,South,10.4,-,0.01,Fog-Snow,Snow,170,2014-01-16 21:23:00
4:37 PM,26.6,23.0,86,29.54,1.5,SSE,9.2,-,0.01,Snow,Light Snow,150,2014-01-16 21:37:00
4:53 PM,27.0,23.0,85,29.57,1.0,SSE,9.2,-,0.02,Snow,Light Snow,150,2014-01-16 21:53:00
5:08 PM,26.6,23.0,86,29.54,0.8,SSE,10.4,-,0.00,Snow,Light Snow,160,2014-01-16 22:08:00
5:43 PM,26.6,23.0,86,29.54,1.0,SSE,11.5,-,0.01,Snow,Light Snow,160,2014-01-16 22:43:00
5:53 PM,27.0,23.0,85,29.58,1.8,SSE,10.4,-,0.01,Snow,Light Snow,160,2014-01-16 22:53:00
6:28 PM,28.4,23.0,80,29.54,4.0,SSE,13.8,-,0.00,Snow,Light Snow,160,2014-01-16 23:28:00
6:41 PM,28.4,24.8,86,29.54,2.5,South,12.7,-,0.00,Snow,Light Snow,170,2014-01-16 23:41:00
6:53 PM,28.0,24.1,85,29.58,2.5,SSE,11.5,-,0.00,Snow,Light Snow,160,2014-01-16 23:53:00
7:06 PM,28.4,24.8,86,29.54,4.0,SSE,12.7,-,0.01,Snow,Light Snow,160,2014-01-17 00:06:00
7:15 PM,28.4,24.8,86,29.54,2.5,SSE,11.5,-,0.01,Snow,Light Snow,160,2014-01-17 00:15:00
7:53 PM,28.9,24.1,82,29.58,5.0,South,11.5,-,0.01,Snow,Light Snow,170,2014-01-17 00:53:00
8:50 PM,28.4,24.8,86,29.54,1.8,South,11.5,-,0.00,Snow,Light Snow,170,2014-01-17 01:50:00
8:53 PM,28.9,25.0,85,29.57,1.8,SSE,11.5,-,0.00,Snow,Light Snow,160,2014-01-17 01:53:00
9:25 PM,28.4,24.8,86,29.54,1.0,South,11.5,-,0.00,Snow,Light Snow,170,2014-01-17 02:25:00
9:46 PM,28.4,26.6,93,29.55,1.5,South,11.5,-,0.00,Snow,Light Snow,180,2014-01-17 02:46:00
9:53 PM,28.9,26.1,89,29.58,1.5,South,10.4,-,0.01,Snow,Light Snow,170,2014-01-17 02:53:00
10:16 PM,28.4,26.6,93,29.55,2.0,South,11.5,-,0.00,Snow,Light Snow,180,2014-01-17 03:16:00
10:44 PM,30.2,26.6,86,29.55,3.0,South,13.8,-,0.00,Snow,Light Snow,190,2014-01-17 03:44:00
10:53 PM,30.9,27.0,85,29.57,6.0,SSW,12.7,-,0.00,Snow,Light Snow,200,2014-01-17 03:53:00
11:53 PM,32.0,28.0,85,29.57,6.0,SSW,10.4,-,0.00,Snow,Light Snow,200,2014-01-17 04:53:00